Location: Huisseau
(47.5933°N, 1.4533°E)
Time: 17:53:31
(UTC+00:00)

CENTAUR R/B - Pass Details

Date: 24 November 2025
Orbit: 633 x 1547 km, 63.4° (Epoch: 06 December)

Event Time Altitude Azimuth Distance (km) Brightness Sun altitude
Exits shadow 05:31:00 20° 265° (W) 2,881 4.4 -16.7°
Maximum altitude 05:32:23 21° 253° (WSW) 2,863 4.4 -16.5°
Drops below altitude 10° 05:38:47 10° 210° (SSW) 3,716 5.4 -15.4°
Sets 05:42:47 0° 196° (SSW) 4,696 6.0 -14.7°
